Powrót do katalogu

STARLINK-30928

AktywnyŁącznośćVLEO
NORAD 58452·PAYLOAD·🇺🇸 United States

Wystrzelony Nov 28, 2023 z Cape Canaveral Space Force Station

Loading…

Następne Przeloty (najbliższe 24 godziny)

TLE

ŚwieżeSource: CelesTrak SupGP

Epoka: Sep 15, 2026, 03:12 UTC

1 58452C 23183R   26258.13381944 -.00026901  00000+0 -97416-3 0  2584
2 58452  43.0028  51.6512 0001792 266.5447 261.7199 15.27597751    11

Śledź STARLINK-30928 w czasie rzeczywistym z AllMySat

Download on the App Store